Weather History for West Palm Beach, FL

Change the Weather History Date:

Sunday, May 12, 2013

  Actual Average Record
Temperature  
Mean Temperature 79 °F 78 °F  
Max Temperature 87 °F 85 °F 95 °F (1974)
Min Temperature 70 °F 70 °F 50 °F (1923)
Degree Days  
Heating Degree Days 0 0  
Month to date heating degree days 0 0  
Since 1 July heating degree days 164 233  
Cooling Degree Days 14 13  
Month to date cooling degree days 119 142  
Year to date cooling degree days 946 837  
Growing Degree Days 28 (Base 50)    
Moisture  
Dew Point 71 °F    
Average Humidity 81    
Maximum Humidity 100    
Minimum Humidity 61    
Precipitation  
Precipitation 0.44 in 0.11 in 3.43 in (1972)
Month to date precipitation 5.27 1.12  
Year to date precipitation 14.55 15.32  
Snow  
Snow 0.00 in - - ()
Month to date snowfall 0.0  
Since 1 July snowfall 0.0  
Snow Depth 0.00 in    
Sea Level Pressure  
Sea Level Pressure 30.00 in    
Wind  
Wind Speed 7 mph (South)    
Max Wind Speed 18 mph    
Max Gust Speed 24 mph    
Visibility 10 miles    
Events Rain , Thunderstorm    
T = Trace of Precipitation, MM = Missing Value Source: NWS Daily Summary

Daily Weather History Graph

Daily Weather History Graph

Search for Another Location

Airport:

Trip Planner

Search our weather history database for the weather conditions in past years. The results will help you decide how hot, cold, wet, or windy it might be!

Date:

Astronomy

May. 12, 2013 Rise Set
Actual Time 6:34 AM EDT 7:59 PM EDT
Civil Twilight 6:09 AM EDT 8:24 PM EDT
Nautical Twilight 5:39 AM EDT 8:54 PM EDT
Astronomical Twilight 5:08 AM EDT 9:25 PM EDT
Moon 8:31 AM EDT (5/12) 10:22 PM EDT (5/12)
Length of Visible Light 14h 14m
Length of Day
13h 24m
Waxing Crescent, 6% of the Moon is Illuminated
May 12
Waxing Crescent
May 18
First Quarter
May 25
Full
May 31
Last Quarter
Jun 8
New

Hourly Weather History & Observations

Time (EDT) Temp. Heat Index Dew Point Humidity Pressure Visibility Wind Dir Wind Speed Gust Speed Precip Events Conditions
12:53 AM 72.0 °F - 69.1 °F 91% 30.06 in 10.0 mi Calm Calm - N/A   Partly Cloudy
1:53 AM 72.0 °F - 70.0 °F 93% 30.03 in 10.0 mi Calm Calm - N/A   Partly Cloudy
2:53 AM 72.0 °F - 70.0 °F 93% 30.01 in 10.0 mi Calm Calm - N/A   Partly Cloudy
3:53 AM 70.0 °F - 69.1 °F 97% 30.00 in 10.0 mi NW 3.5 mph - N/A   Partly Cloudy
4:53 AM 72.0 °F - 70.0 °F 93% 29.99 in 10.0 mi Calm Calm - N/A   Partly Cloudy
5:53 AM 73.0 °F - 71.1 °F 93% 29.96 in 10.0 mi South 4.6 mph - N/A   Partly Cloudy
6:53 AM 73.0 °F - 72.0 °F 96% 29.99 in 10.0 mi Calm Calm - N/A   Scattered Clouds
7:53 AM 75.0 °F - 73.0 °F 94% 30.01 in 10.0 mi WSW 3.5 mph - N/A   Scattered Clouds
8:53 AM 79.0 °F - 73.9 °F 84% 30.02 in 10.0 mi SSW 10.4 mph - N/A   Scattered Clouds
9:53 AM 81.0 °F 84.9 °F 71.1 °F 72% 30.02 in 10.0 mi South 11.5 mph - N/A   Scattered Clouds
10:53 AM 82.9 °F 87.0 °F 70.0 °F 65% 30.03 in 10.0 mi SW 8.1 mph - N/A   Scattered Clouds
11:53 AM 82.9 °F 87.0 °F 70.0 °F 65% 30.03 in 10.0 mi SW 8.1 mph - N/A   Mostly Cloudy
12:53 PM 84.9 °F 88.8 °F 69.1 °F 59% 30.01 in 10.0 mi SSW 5.8 mph - N/A   Mostly Cloudy
1:53 PM 86.0 °F 93.0 °F 73.0 °F 65% 29.99 in 10.0 mi SE 10.4 mph 21.9 mph N/A   Mostly Cloudy
2:53 PM 84.0 °F 89.0 °F 71.1 °F 65% 29.96 in 10.0 mi SSE 15.0 mph - N/A   Mostly Cloudy
3:53 PM 84.0 °F 88.4 °F 70.0 °F 63% 29.95 in 10.0 mi SE 16.1 mph 21.9 mph 0.00 in   Mostly Cloudy
4:53 PM 82.9 °F 86.5 °F 69.1 °F 63% 29.94 in 10.0 mi SSE 15.0 mph - N/A   Mostly Cloudy
5:19 PM 82.4 °F 86.3 °F 69.8 °F 66% 29.94 in 10.0 mi SSE 13.8 mph - N/A Thunderstorm Thunderstorm
5:33 PM 77.0 °F - 66.2 °F 69% 29.97 in 10.0 mi North 12.7 mph 24.2 mph N/A Thunderstorm Thunderstorm
5:44 PM 73.4 °F - 69.8 °F 88% 30.01 in 2.0 mi Variable 6.9 mph 19.6 mph 0.06 in Rain , Thunderstorm Heavy Thunderstorms and Rain
5:53 PM 75.0 °F - 70.0 °F 84% 30.00 in 2.5 mi SE 9.2 mph - 0.39 in Rain , Thunderstorm Heavy Thunderstorms and Rain
5:58 PM 73.4 °F - 71.6 °F 94% 29.99 in 7.0 mi South 5.8 mph - 0.00 in Rain , Thunderstorm Light Thunderstorms and Rain
6:21 PM 73.4 °F - 71.6 °F 94% 30.00 in 10.0 mi SSW 3.5 mph - 0.02 in Rain , Thunderstorm Light Thunderstorms and Rain
6:53 PM 73.0 °F - 71.1 °F 93% 30.01 in 10.0 mi SSW 4.6 mph - 0.02 in Thunderstorm Thunderstorm
7:28 PM 71.6 °F - 69.8 °F 94% 30.00 in 10.0 mi SSE 5.8 mph - 0.03 in   Mostly Cloudy
7:53 PM 73.0 °F - 70.0 °F 90% 30.01 in 10.0 mi SW 3.5 mph - 0.03 in   Mostly Cloudy
8:53 PM 73.0 °F - 70.0 °F 90% 30.02 in 10.0 mi SSW 12.7 mph - 0.00 in   Mostly Cloudy
9:53 PM 73.0 °F - 70.0 °F 90% 30.03 in 10.0 mi Calm Calm - N/A   Scattered Clouds
10:53 PM 72.0 °F - 70.0 °F 93% 30.04 in 10.0 mi SSW 4.6 mph - N/A   Partly Cloudy
11:53 PM 72.0 °F - 70.0 °F 93% 30.04 in 10.0 mi WSW 3.5 mph - N/A   Partly Cloudy